Cahokia, IL

4:45 AM CDT on May 23, 2018 (GMT -0500)
Saint Louis Downtown

Weather History for KCPS - November, 2011

Change the Weather History Date:

Friday, November 4, 2011

  Actual Average Record
Temperature  
Mean Temperature 49 °F -  
Max Temperature 57 °F 43 °F 82 °F (2003)
Min Temperature 39 °F 31 °F 20 °F (1951)
Degree Days  
Heating Degree Days 16    
Moisture  
Dew Point 41 °F    
Average Humidity 78    
Maximum Humidity 100    
Minimum Humidity 59    
Precipitation  
Precipitation 0.00 in - - ()
Sea Level Pressure  
Sea Level Pressure 30.22 in    
Wind  
Wind Speed 9 mph (North)    
Max Wind Speed 15 mph    
Max Gust Speed -    
Visibility 9 miles    
Events      
Averages and records for this station are not official NWS values.
T = Trace of Precipitation, MM = Missing Value Source: NWS Daily Summary

Daily Weather History Graph

Daily Weather History Graph

Search for Another Location

Airport or City:

Astronomy

Nov. 04, 2011 Rise Set
Actual Time 7:30 AM CDT 5:57 PM CDT
Civil Twilight 7:02 AM CDT 6:25 PM CDT
Nautical Twilight 6:31 AM CDT 6:56 PM CDT
Astronomical Twilight 6:00 AM CDT 7:27 PM CDT
Moon 2:45 PM CDT (11/4) 1:46 AM CDT (11/4)
Length of Visible Light 11h 22m
Length of Day
10h 27m
Waxing Gibbous, 69% of the Moon is Illuminated
Nov 4
Waxing Gibbous
Nov 10
Full
Nov 18
Last Quarter
Nov 25
New
Dec 2
First Quarter

Hourly Weather History & Observations

Time (CDT) Temp. Windchill Dew Point Humidity Pressure Visibility Wind Dir Wind Speed Gust Speed Precip Events Conditions
12:53 AM 46.9 °F - 41.0 °F 80% 30.15 in 10.0 mi North 15.0 mph - N/A   Overcast
1:53 AM 46.9 °F - 41.0 °F 80% 30.16 in 10.0 mi North 12.7 mph - N/A   Overcast
3:53 AM 46.9 °F - 41.0 °F 80% 30.18 in 10.0 mi NNW 9.2 mph - N/A   Overcast
4:53 AM 46.9 °F - 41.0 °F 80% 30.20 in 10.0 mi North 9.2 mph - N/A   Overcast
5:49 AM 46.4 °F 41.5 °F 41.0 °F 81% 30.21 in - North 10.4 mph - N/A   Unknown
5:53 AM 46.9 °F - 41.0 °F 80% 30.22 in 10.0 mi North 9.2 mph - N/A   Unknown
6:20 AM 46.4 °F 42.4 °F 41.0 °F 81% 30.21 in 10.0 mi NNW 8.1 mph - N/A   Overcast
6:53 AM 46.9 °F - 41.0 °F 80% 30.22 in 10.0 mi North 8.1 mph - N/A   Overcast
7:53 AM 46.0 °F 41.0 °F 39.9 °F 79% 30.24 in 10.0 mi NNE 10.4 mph - N/A   Overcast
8:53 AM 44.1 °F 39.0 °F 39.0 °F 82% 30.26 in 10.0 mi North 9.2 mph - N/A   Overcast
9:53 AM 45.0 °F 40.1 °F 39.0 °F 80% 30.28 in 10.0 mi North 9.2 mph - N/A   Overcast
10:53 AM 46.9 °F - 39.9 °F 77% - 10.0 mi North 6.9 mph - N/A   Overcast
11:33 AM 50.0 °F - 41.0 °F 71% 30.29 in 10.0 mi NW 9.2 mph - N/A   Partly Cloudy
11:53 AM 50.0 °F - 41.0 °F 71% 30.28 in 10.0 mi NW 6.9 mph - N/A   Partly Cloudy
12:53 PM 53.1 °F - 41.0 °F 64% 30.26 in 10.0 mi NNE 5.8 mph - N/A   Partly Cloudy
1:53 PM 54.0 °F - 42.1 °F 64% 30.23 in 10.0 mi North 4.6 mph - N/A   Clear
2:53 PM 55.9 °F - 43.0 °F 62% 30.22 in 10.0 mi North - - N/A   Clear
3:53 PM 57.0 °F - 43.0 °F 59% 30.22 in 10.0 mi Calm Calm - N/A   Clear
4:53 PM 57.0 °F - 44.1 °F 62% 30.21 in 10.0 mi NNE 4.6 mph - N/A   Clear
5:53 PM 54.0 °F - 44.1 °F 69% 30.21 in 10.0 mi ENE 3.5 mph - N/A   Clear
6:53 PM 48.0 °F - 42.1 °F 80% 30.22 in 10.0 mi Calm Calm - N/A   Clear
7:53 PM 45.0 °F - 42.1 °F 90% 30.22 in 9.0 mi Calm Calm - N/A   Clear
8:53 PM 43.0 °F - 41.0 °F 93% 30.22 in 10.0 mi Calm Calm - N/A   Clear
9:53 PM 43.0 °F - 41.0 °F 93% 30.22 in 7.0 mi Calm Calm - N/A   Clear
10:53 PM 41.0 °F 39.0 °F 39.0 °F 93% 30.22 in 6.0 mi SE 3.5 mph - N/A   Clear
11:48 PM 42.8 °F 40.1 °F 39.2 °F 87% 30.21 in 5.0 mi SE 4.6 mph - N/A   Clear
11:53 PM 39.9 °F 36.7 °F 39.9 °F 100% 30.21 in 5.0 mi SSE 4.6 mph - N/A   Clear